Cranbrook, British Columbia

6:06 AM MDT on July 28, 2017 (GMT -0600)
Cranbrook

Weather History for CYXC - October, 2012

Change the Weather History Date:

Monday, October 8, 2012

  Actual Average Record
Temperature  
Mean Temperature 40 °F -  
Max Temperature 52 °F 46 °F 66 °F (2004)
Min Temperature 28 °F 28 °F 24 °F (2000)
Degree Days  
Heating Degree Days 25    
Moisture  
Dew Point 33 °F    
Average Humidity 70    
Maximum Humidity 87    
Minimum Humidity 45    
Precipitation  
Precipitation 0.00 in 0.03 in - ()
Sea Level Pressure  
Sea Level Pressure 30.04 in    
Wind  
Wind Speed 3 mph ()    
Max Wind Speed 8 mph    
Max Gust Speed -    
Averages and records for this station are not official NWS values.
T = Trace of Precipitation, MM = Missing Value Source: Averaged Metar Reports

Daily Weather History Graph

Daily Weather History Graph

Search for Another Location

Airport or City:

Trip Planner

Search our weather history database for the weather conditions in past years. The results will help you decide how hot, cold, wet, or windy it might be!

Date:

Astronomy

Oct. 08, 2012 Rise Set
Actual Time 7:54 AM MDT 7:05 PM MDT
Civil Twilight 7:22 AM MDT 7:37 PM MDT
Nautical Twilight 6:45 AM MDT 8:14 PM MDT
Astronomical Twilight 6:07 AM MDT 8:51 PM MDT
Moon 12:01 AM MDT (10/8) 3:31 PM MDT (10/8)
Length of Visible Light 12h 15m
Length of Day
11h 11m
Last Quarter, 46% of the Moon is Illuminated
Oct 8
Last Quarter
Oct 15
New
Oct 21
First Quarter
Oct 29
Full
Nov 6
Last Quarter

Hourly Weather History & Observations

Time (MDT) Temp. Windchill Dew Point Humidity Pressure Visibility Wind Dir Wind Speed Gust Speed Precip Events Conditions
12:00 AM 36 °F - 29 °F 66% 30.05 in 25 mi SSW 4.6 mph - -   Scattered Clouds
12:00 AM 37.4 °F 33.8 °F 28.4 °F 70% 30.05 in 25.0 mi SSW 4.6 mph - N/A   Partly Cloudy
1:00 AM 37.4 °F 32.8 °F 28.4 °F 70% 30.05 in 25.0 mi South 5.8 mph - N/A   Partly Cloudy
2:00 AM 37.4 °F 34.9 °F 28.4 °F 70% 30.05 in 25.0 mi SSW 3.5 mph - N/A   Mostly Cloudy
3:00 AM 32.0 °F 27.5 °F 26.6 °F 80% 30.04 in 25.0 mi SSW 4.6 mph - N/A   Partly Cloudy
4:00 AM 32.0 °F - 28.4 °F 87% 30.04 in 25.0 mi SW 2.3 mph - N/A   Partly Cloudy
5:00 AM 32.0 °F 27.5 °F 28.4 °F 87% 30.03 in 25.0 mi South 4.6 mph - N/A   Partly Cloudy
6:00 AM 33 °F - 29 °F 78% 30.03 in 25 mi South 3.5 mph - -   Mostly Cloudy
7:00 AM 32.0 °F - 28.4 °F 87% 30.02 in 25.0 mi SSW 2.3 mph - N/A   Mostly Cloudy
8:00 AM 32.0 °F - 28.4 °F 87% 30.03 in 25.0 mi Calm Calm - N/A   Overcast
9:00 AM 33.8 °F - 30.2 °F 87% 30.06 in 25.0 mi NW 2.3 mph - N/A   Overcast
10:00 AM 37.4 °F - 30.2 °F 75% 30.06 in 25.0 mi WNW 2.3 mph - N/A   Overcast
11:00 AM 41.0 °F 39.0 °F 30.2 °F 65% 30.06 in 25.0 mi West 3.5 mph - N/A   Overcast
12:00 PM 47 °F - 32 °F 45% 30.03 in 25 mi North 8.1 mph - -   Overcast
12:00 PM 48.2 °F - 32.0 °F 54% 30.03 in 25.0 mi North 8.1 mph - N/A   Overcast
1:00 PM 50.0 °F - 33.8 °F 54% 30.03 in 25.0 mi ENE 4.6 mph - N/A   Overcast
2:00 PM 48.2 °F - 37.4 °F 66% 30.02 in 25.0 mi North 6.9 mph - N/A   Overcast
3:00 PM 48.2 °F - 37.4 °F 66% 30.03 in 25.0 mi NNE 8.1 mph - N/A   Mostly Cloudy
4:00 PM 48.2 °F - 37.4 °F 66% 30.02 in 25.0 mi Calm Calm - N/A   Mostly Cloudy
5:00 PM 51.8 °F - 37.4 °F 58% 30.01 in 25.0 mi Calm Calm - N/A   Mostly Cloudy
6:00 PM 50 °F - 38 °F 52% 30.03 in 47 mi ENE 4.6 mph - -   Scattered Clouds
6:00 PM 50.0 °F - 37.4 °F 62% 30.03 in 45.0 mi ENE 4.6 mph - N/A   Mostly Cloudy
7:00 PM 48.2 °F - 37.4 °F 66% 30.03 in 25.0 mi Calm Calm - N/A   Mostly Cloudy
8:00 PM 48.2 °F - 37.4 °F 66% 30.05 in 25.0 mi NW 3.5 mph - N/A   Mostly Cloudy
9:00 PM 46.4 °F 44.3 °F 39.2 °F 76% 30.07 in 25.0 mi NNW 4.6 mph - N/A Rain Light Rain Showers
9:48 PM - - - N/A% - 25.0 mi Calm Calm - N/A   Overcast
10:00 PM 46.4 °F - 41.0 °F 81% 30.09 in 25.0 mi North 2.3 mph - N/A   Overcast